QPF
0.00 0.01 0.01 0.01 0.00 0.00 0.00 0.00 0.00 0.00 0.00 0.00 0.00 0.00 0.00 0.00 0.00 0.00 0.00 0.00 0.00 0.00 0.00 0.01 0.01 0.02 0.02 0.02 0.03 0.03 0.03 0.03 0.04 0.05 0.04 0.03 0.03 0.02 0.03 0.03 0.03 0.03 0.02 0.03 0.04 0.02 0.02 0.01 0.01
0.01 0.01 0.01 0.01 0.00 0.00 0.00 0.00 0.00 0.00 0.00 0.00 0.00 0.00 0.00 0.00 0.00 0.00 0.00 0.00 0.00 0.00 0.00 0.00 0.01 0.02 0.02 0.02 0.03 0.03 0.03 0.04 0.04 0.06 0.07 0.06 0.05 0.04 0.03 0.03 0.03 0.03 0.02 0.02 0.03 0.03 0.01 0.01 0.01
0.00 0.01 0.01 0.01 0.00 0.00 0.00 0.00 0.00 0.00 0.00 0.00 0.00 0.00 0.00 0.00 0.00 0.00 0.00 0.00 0.00 0.00 0.00 0.00 0.01 0.02 0.02 0.03 0.03 0.03 0.04 0.04 0.04 0.05 0.07 0.08 0.07 0.07 0.04 0.03 0.02 0.02 0.02 0.02 0.02 0.03 0.02 0.01 0.01
0.01 0.01 0.01 0.01 0.00 0.00 0.00 0.00 0.00 0.00 0.00 0.00 0.00 0.00 0.00 0.00 0.00 0.00 0.00 0.00 0.00 0.00 0.00 0.01 0.01 0.02 0.02 0.03 0.04 0.04 0.04 0.05 0.05 0.06 0.07 0.07 0.07 0.07 0.06 0.04 0.03 0.03 0.03 0.03 0.03 0.03 0.02 0.01 0.01
0.01 0.01 0.01 0.00 0.00 0.00 0.00 0.00 0.00 0.00 0.00 0.00 0.00 0.00 0.00 0.00 0.00 0.00 0.00 0.00 0.00 0.00 0.00 0.01 0.01 0.02 0.02 0.03 0.04 0.05 0.05 0.05 0.06 0.07 0.07 0.08 0.07 0.07 0.06 0.05 0.04 0.03 0.03 0.03 0.03 0.03 0.02 0.01 0.01
0.01 0.00 0.00 0.00 0.00 0.00 0.00 0.00 0.00 0.00 0.00 0.00 0.00 0.00 0.00 0.00 0.00 0.00 0.00 0.00 0.00 0.00 0.00 0.01 0.02 0.02 0.02 0.03 0.04 0.05 0.06 0.07 0.07 0.09 0.09 0.09 0.08 0.08 0.07 0.06 0.05 0.04 0.03 0.03 0.03 0.04 0.03 0.02 0.01
0.01 0.01 0.00 0.00 0.00 0.00 0.00 0.00 0.00 0.00 0.00 0.00 0.00 0.00 0.00 0.00 0.00 0.00 0.00 0.00 0.00 0.00 0.01 0.01 0.02 0.03 0.03 0.03 0.03 0.04 0.06 0.07 0.08 0.09 0.10 0.11 0.11 0.10 0.08 0.07 0.06 0.05 0.05 0.04 0.03 0.04 0.04 0.03 0.02
0.01 0.01 0.00 0.00 0.00 0.00 0.00 0.00 0.00 0.00 0.00 0.00 0.00 0.00 0.00 0.00 0.00 0.00 0.00 0.00 0.00 0.01 0.01 0.02 0.03 0.04 0.04 0.03 0.03 0.03 0.04 0.06 0.07 0.08 0.08 0.09 0.11 0.14 0.12 0.10 0.08 0.06 0.05 0.04 0.04 0.04 0.04 0.04 0.03
0.01 0.01 0.00 0.00 0.00 0.00 0.00 0.00 0.00 0.00 0.00 0.00 0.00 0.00 0.00 0.00 0.00 0.00 0.01 0.01 0.01 0.02 0.02 0.03 0.04 0.04 0.04 0.04 0.04 0.04 0.05 0.06 0.07 0.08 0.07 0.07 0.09 0.10 0.12 0.10 0.09 0.07 0.07 0.06 0.05 0.05 0.04 0.04 0.02
0.01 0.01 0.00 0.00 0.00 0.00 0.00 0.00 0.00 0.00 0.00 0.00 0.00 0.00 0.00 0.00 0.00 0.01 0.01 0.01 0.02 0.02 0.03 0.04 0.04 0.05 0.05 0.05 0.06 0.06 0.06 0.06 0.06 0.07 0.07 0.08 0.07 0.07 0.07 0.09 0.09 0.08 0.08 0.08 0.07 0.06 0.05 0.04 0.03
0.01 0.00 0.00 0.00 0.00 0.00 0.00 0.00 0.00 0.00 0.00 0.00 0.00 0.00 0.00 0.01 0.01 0.01 0.01 0.01 0.02 0.03 0.04 0.04 0.05 0.06 0.06 0.06 0.06 0.06 0.05 0.05 0.06 0.06 0.06 0.07 0.08 0.08 0.07 0.08 0.08 0.10 0.09 0.09 0.07 0.06 0.05 0.03 0.02
0.01 0.01 0.00 0.00 0.00 0.00 0.00 0.00 0.00 0.00 0.00 0.00 0.00 0.00 0.00 0.01 0.01 0.01 0.01 0.01 0.02 0.03 0.04 0.05 0.05 0.06 0.07 0.07 0.05 0.05 0.04 0.04 0.04 0.06 0.06 0.07 0.07 0.07 0.06 0.07 0.06 0.07 0.06 0.06 0.05 0.04 0.04 0.04 0.03
0.01 0.01 0.01 0.00 0.00 0.00 0.00 0.00 0.00 0.00 0.00 0.00 0.00 0.00 0.01 0.01 0.01 0.01 0.02 0.02 0.02 0.03 0.04 0.05 0.05 0.07 0.08 0.07 0.06 0.05 0.04 0.03 0.03 0.05 0.07 0.08 0.08 0.08 0.07 0.06 0.07 0.07 0.06 0.05 0.04 0.03 0.03 0.03 0.03
0.01 0.00 0.00 0.00 0.00 0.00 0.00 0.00 0.00 0.00 0.00 0.00 0.00 0.01 0.01 0.01 0.02 0.02 0.03 0.03 0.03 0.03 0.04 0.06 0.07 0.09 0.11 0.08 0.06 0.05 0.05 0.04 0.03 0.03 0.05 0.08 0.09 0.09 0.09 0.09 0.09 0.08 0.07 0.06 0.06 0.05 0.04 0.03 0.03
0.01 0.01 0.00 0.00 0.00 0.00 0.01 0.01 0.00 0.00 0.00 0.00 0.00 0.01 0.01 0.02 0.03 0.03 0.03 0.03 0.03 0.04 0.05 0.07 0.09 0.10 0.11 0.09 0.08 0.06 0.06 0.05 0.03 0.03 0.04 0.07 0.10 0.11 0.09 0.09 0.09 0.10 0.08 0.07 0.06 0.05 0.05 0.04 0.03
0.02 0.01 0.01 0.00 0.00 0.00 0.01 0.01 0.00 0.00 0.00 0.00 0.00 0.00 0.01 0.01 0.03 0.04 0.04 0.04 0.04 0.04 0.06 0.07 0.11 0.11 0.11 0.09 0.08 0.07 0.06 0.06 0.05 0.03 0.04 0.07 0.09 0.11 0.12 0.10 0.09 0.09 0.09 0.08 0.07 0.05 0.04 0.03 0.02
0.02 0.02 0.01 0.00 0.00 0.00 0.00 0.00 0.00 0.00 0.00 0.01 0.01 0.00 0.00 0.00 0.01 0.02 0.04 0.04 0.05 0.05 0.07 0.08 0.10 0.12 0.12 0.10 0.07 0.07 0.07 0.05 0.06 0.05 0.04 0.05 0.08 0.09 0.11 0.11 0.10 0.11 0.10 0.07 0.06 0.05 0.04 0.03 0.02
0.01 0.01 0.01 0.01 0.00 0.00 0.00 0.00 0.00 0.01 0.01 0.01 0.01 0.01 0.01 0.00 0.00 0.01 0.03 0.05 0.06 0.07 0.08 0.09 0.10 0.13 0.14 0.13 0.08 0.08 0.09 0.08 0.05 0.05 0.04 0.03 0.05 0.08 0.09 0.10 0.12 0.12 0.12 0.09 0.07 0.06 0.04 0.03 0.03
0.01 0.01 0.01 0.01 0.01 0.00 0.00 0.00 0.01 0.02 0.02 0.01 0.01 0.01 0.02 0.01 0.00 0.01 0.01 0.03 0.05 0.08 0.11 0.13 0.11 0.14 0.15 0.13 0.09 0.07 0.09 0.09 0.07 0.05 0.04 0.03 0.03 0.06 0.09 0.09 0.11 0.12 0.12 0.11 0.09 0.08 0.07 0.06 0.05
0.01 0.01 0.01 0.01 0.01 0.01 0.01 0.02 0.02 0.03 0.03 0.02 0.01 0.01 0.02 0.03 0.02 0.01 0.01 0.02 0.03 0.06 0.12 0.19 0.13 0.14 0.16 0.11 0.07 0.06 0.07 0.09 0.09 0.07 0.05 0.03 0.02 0.04 0.07 0.10 0.10 0.11 0.12 0.12 0.11 0.10 0.09 0.08 0.07
0.01 0.01 0.01 0.01 0.01 0.01 0.02 0.02 0.02 0.02 0.02 0.01 0.01 0.01 0.01 0.02 0.01 0.01 0.02 0.02 0.03 0.04 0.09 0.17 0.16 0.14 0.17 0.11 0.07 0.07 0.08 0.10 0.11 0.10 0.08 0.05 0.03 0.03 0.05 0.09 0.12 0.11 0.11 0.11 0.11 0.10 0.10 0.08 0.07
0.01 0.00 0.00 0.01 0.02 0.02 0.02 0.03 0.02 0.02 0.01 0.01 0.01 0.01 0.01 0.02 0.01 0.01 0.01 0.02 0.04 0.03 0.08 0.13 0.16 0.12 0.14 0.12 0.08 0.07 0.08 0.10 0.10 0.09 0.08 0.06 0.05 0.04 0.05 0.06 0.09 0.13 0.12 0.11 0.11 0.11 0.10 0.10 0.08
0.01 0.00 0.00 0.01 0.02 0.02 0.01 0.03 0.03 0.03 0.03 0.03 0.02 0.02 0.02 0.02 0.02 0.01 0.01 0.02 0.05 0.04 0.08 0.11 0.12 0.10 0.10 0.13 0.09 0.08 0.08 0.09 0.10 0.10 0.09 0.08 0.06 0.05 0.05 0.06 0.07 0.10 0.12 0.11 0.11 0.10 0.11 0.11 0.10
0.00 0.01 0.01 0.01 0.01 0.02 0.02 0.03 0.04 0.04 0.03 0.02 0.02 0.01 0.02 0.03 0.03 0.01 0.01 0.02 0.04 0.06 0.07 0.10 0.10 0.09 0.08 0.10 0.09 0.08 0.09 0.09 0.10 0.11 0.11 0.09 0.08 0.07 0.06 0.07 0.07 0.08 0.10 0.10 0.11 0.11 0.10 0.09 0.09
0.00 0.01 0.02 0.01 0.01 0.01 0.02 0.03 0.04 0.03 0.02 0.02 0.02 0.01 0.02 0.02 0.03 0.03 0.02 0.03 0.05 0.08 0.08 0.09 0.09 0.08 0.08 0.08 0.08 0.06 0.09 0.11 0.09 0.10 0.11 0.10 0.09 0.07 0.06 0.07 0.07 0.07 0.09 0.09 0.09 0.11 0.11 0.09 0.08
0.00 0.01 0.02 0.02 0.01 0.00 0.01 0.03 0.04 0.04 0.03 0.01 0.01 0.01 0.01 0.02 0.02 0.03 0.04 0.05 0.07 0.08 0.09 0.09 0.08 0.07 0.07 0.08 0.07 0.06 0.07 0.10 0.12 0.11 0.10 0.10 0.09 0.07 0.06 0.07 0.09 0.09 0.09 0.10 0.10 0.10 0.11 0.11 0.09
0.00 0.00 0.01 0.02 0.01 0.00 0.00 0.01 0.03 0.05 0.04 0.02 0.01 0.01 0.01 0.02 0.02 0.03 0.04 0.05 0.08 0.09 0.09 0.08 0.08 0.07 0.06 0.07 0.07 0.06 0.07 0.08 0.11 0.13 0.12 0.10 0.10 0.08 0.06 0.07 0.09 0.11 0.12 0.12 0.12 0.11 0.11 0.11 0.11
0.00 0.00 0.01 0.01 0.01 0.01 0.00 0.00 0.01 0.03 0.04 0.03 0.02 0.02 0.03 0.03 0.04 0.04 0.04 0.04 0.06 0.09 0.08 0.07 0.08 0.08 0.06 0.06 0.06 0.06 0.06 0.08 0.10 0.13 0.15 0.13 0.11 0.09 0.07 0.07 0.07 0.09 0.11 0.13 0.13 0.13 0.12 0.12 0.12
0.00 0.00 0.00 0.01 0.01 0.01 0.01 0.00 0.01 0.02 0.04 0.05 0.04 0.04 0.05 0.04 0.05 0.05 0.05 0.05 0.05 0.06 0.07 0.07 0.08 0.11 0.08 0.05 0.04 0.04 0.05 0.07 0.09 0.11 0.12 0.13 0.12 0.10 0.08 0.09 0.08 0.08 0.11 0.13 0.13 0.14 0.14 0.14 0.14
0.00 0.00 0.00 0.01 0.01 0.01 0.01 0.00 0.00 0.01 0.02 0.04 0.05 0.05 0.04 0.03 0.03 0.03 0.04 0.05 0.06 0.07 0.08 0.07 0.07 0.10 0.11 0.07 0.05 0.04 0.04 0.05 0.07 0.09 0.10 0.11 0.10 0.08 0.07 0.08 0.10 0.09 0.09 0.10 0.12 0.13 0.13 0.14 0.13
MSLP
1014.96 1014.88 1014.68 1014.33 1013.85 1013.25 1012.58 1011.90 1011.28 1010.77 1010.38 1010.11 1009.91 1009.74 1009.54 1009.29 1008.98 1008.64 1008.34 1008.13 1008.10 1008.29 1008.70 1009.32 1010.06 1010.84 1011.57 1012.19 1012.65 1012.97 1013.16 1013.29 1013.42 1013.58 1013.80 1014.07 1014.36 1014.64 1014.86 1015.01 1015.07 1015.08 1015.05 1015.03 1015.04 1015.09 1015.18 1015.29 1015.39
1015.11 1014.93 1014.60 1014.12 1013.48 1012.74 1011.96 1011.20 1010.54 1010.03 1009.67 1009.45 1009.32 1009.22 1009.09 1008.90 1008.63 1008.33 1008.04 1007.86 1007.84 1008.03 1008.47 1009.11 1009.89 1010.73 1011.53 1012.23 1012.77 1013.15 1013.40 1013.56 1013.70 1013.86 1014.06 1014.30 1014.56 1014.81 1015.02 1015.16 1015.23 1015.26 1015.27 1015.28 1015.33 1015.42 1015.54 1015.67 1015.79
1015.20 1014.90 1014.44 1013.80 1013.02 1012.16 1011.28 1010.47 1009.79 1009.28 1008.96 1008.79 1008.73 1008.71 1008.66 1008.55 1008.36 1008.12 1007.88 1007.72 1007.71 1007.92 1008.34 1008.98 1009.77 1010.62 1011.46 1012.20 1012.80 1013.24 1013.55 1013.76 1013.93 1014.09 1014.27 1014.49 1014.71 1014.94 1015.13 1015.27 1015.36 1015.42 1015.47 1015.53 1015.63 1015.76 1015.91 1016.06 1016.18
1015.20 1014.79 1014.20 1013.43 1012.54 1011.59 1010.65 1009.80 1009.11 1008.62 1008.32 1008.20 1008.20 1008.25 1008.29 1008.27 1008.18 1008.02 1007.86 1007.76 1007.78 1007.99 1008.39 1008.99 1009.74 1010.57 1011.39 1012.14 1012.77 1013.26 1013.61 1013.87 1014.06 1014.24 1014.42 1014.62 1014.83 1015.03 1015.21 1015.36 1015.48 1015.58 1015.68 1015.79 1015.93 1016.10 1016.27 1016.43 1016.54
1015.11 1014.61 1013.92 1013.08 1012.12 1011.13 1010.16 1009.31 1008.61 1008.13 1007.85 1007.75 1007.78 1007.88 1007.99 1008.07 1008.08 1008.04 1007.99 1007.97 1008.04 1008.25 1008.63 1009.18 1009.85 1010.61 1011.37 1012.08 1012.70 1013.21 1013.60 1013.89 1014.12 1014.31 1014.51 1014.70 1014.91 1015.11 1015.30 1015.47 1015.62 1015.77 1015.91 1016.07 1016.25 1016.43 1016.62 1016.77 1016.87
1014.93 1014.38 1013.65 1012.78 1011.82 1010.83 1009.89 1009.05 1008.37 1007.88 1007.59 1007.47 1007.50 1007.61 1007.77 1007.92 1008.04 1008.12 1008.19 1008.28 1008.42 1008.66 1009.02 1009.50 1010.08 1010.73 1011.40 1012.04 1012.62 1013.11 1013.51 1013.84 1014.10 1014.33 1014.54 1014.76 1014.97 1015.19 1015.40 1015.60 1015.79 1015.98 1016.17 1016.36 1016.55 1016.75 1016.92 1017.06 1017.14
1014.69 1014.12 1013.39 1012.55 1011.64 1010.72 1009.84 1009.05 1008.39 1007.89 1007.55 1007.38 1007.35 1007.43 1007.59 1007.78 1007.99 1008.19 1008.39 1008.60 1008.83 1009.11 1009.46 1009.87 1010.36 1010.90 1011.46 1012.01 1012.52 1012.99 1013.39 1013.73 1014.03 1014.29 1014.54 1014.78 1015.02 1015.26 1015.50 1015.73 1015.96 1016.18 1016.40 1016.61 1016.81 1017.00 1017.15 1017.26 1017.32
1014.40 1013.84 1013.16 1012.40 1011.59 1010.77 1009.98 1009.26 1008.62 1008.09 1007.69 1007.43 1007.30 1007.30 1007.41 1007.61 1007.87 1008.18 1008.50 1008.82 1009.15 1009.49 1009.84 1010.21 1010.62 1011.05 1011.50 1011.96 1012.41 1012.84 1013.23 1013.59 1013.92 1014.22 1014.51 1014.78 1015.05 1015.31 1015.58 1015.84 1016.10 1016.34 1016.58 1016.79 1016.99 1017.15 1017.27 1017.36 1017.39
1014.08 1013.56 1012.95 1012.28 1011.59 1010.90 1010.23 1009.58 1008.97 1008.41 1007.93 1007.55 1007.29 1007.17 1007.20 1007.36 1007.65 1008.02 1008.44 1008.88 1009.30 1009.70 1010.07 1010.43 1010.77 1011.12 1011.49 1011.87 1012.26 1012.66 1013.05 1013.43 1013.79 1014.12 1014.44 1014.74 1015.03 1015.32 1015.60 1015.88 1016.15 1016.41 1016.65 1016.86 1017.04 1017.18 1017.28 1017.34 1017.36
1013.75 1013.25 1012.71 1012.14 1011.58 1011.02 1010.47 1009.90 1009.32 1008.74 1008.17 1007.67 1007.26 1007.01 1006.92 1007.02 1007.29 1007.70 1008.19 1008.72 1009.23 1009.70 1010.11 1010.47 1010.79 1011.09 1011.40 1011.73 1012.08 1012.46 1012.86 1013.25 1013.63 1014.00 1014.34 1014.66 1014.96 1015.26 1015.55 1015.83 1016.11 1016.37 1016.61 1016.81 1016.98 1017.10 1017.18 1017.22 1017.23
1013.37 1012.89 1012.40 1011.92 1011.47 1011.03 1010.59 1010.10 1009.56 1008.96 1008.33 1007.71 1007.18 1006.79 1006.59 1006.60 1006.84 1007.25 1007.79 1008.38 1008.96 1009.50 1009.96 1010.34 1010.66 1010.94 1011.23 1011.54 1011.88 1012.25 1012.65 1013.06 1013.47 1013.85 1014.20 1014.53 1014.83 1015.12 1015.41 1015.68 1015.96 1016.22 1016.45 1016.65 1016.82 1016.93 1017.01 1017.04 1017.06
1012.93 1012.44 1011.97 1011.55 1011.19 1010.86 1010.51 1010.11 1009.62 1009.02 1008.34 1007.65 1007.01 1006.51 1006.21 1006.14 1006.33 1006.73 1007.29 1007.93 1008.57 1009.16 1009.67 1010.09 1010.43 1010.72 1011.01 1011.32 1011.66 1012.05 1012.46 1012.88 1013.30 1013.68 1014.04 1014.36 1014.65 1014.92 1015.19 1015.46 1015.72 1015.98 1016.22 1016.42 1016.59 1016.72 1016.80 1016.84 1016.86
1012.38 1011.86 1011.39 1011.01 1010.71 1010.46 1010.21 1009.88 1009.45 1008.88 1008.20 1007.47 1006.77 1006.19 1005.82 1005.70 1005.84 1006.23 1006.79 1007.45 1008.13 1008.77 1009.32 1009.78 1010.16 1010.48 1010.78 1011.11 1011.47 1011.86 1012.28 1012.71 1013.13 1013.51 1013.85 1014.16 1014.43 1014.68 1014.93 1015.18 1015.44 1015.70 1015.94 1016.17 1016.35 1016.50 1016.59 1016.65 1016.67
1011.67 1011.11 1010.64 1010.28 1010.04 1009.86 1009.68 1009.44 1009.07 1008.55 1007.90 1007.17 1006.47 1005.87 1005.46 1005.31 1005.43 1005.80 1006.36 1007.04 1007.74 1008.41 1009.00 1009.50 1009.91 1010.26 1010.59 1010.93 1011.30 1011.70 1012.13 1012.55 1012.96 1013.33 1013.66 1013.95 1014.20 1014.43 1014.66 1014.90 1015.16 1015.42 1015.68 1015.92 1016.13 1016.29 1016.41 1016.47 1016.50
1010.79 1010.21 1009.74 1009.41 1009.22 1009.10 1009.00 1008.83 1008.54 1008.08 1007.49 1006.81 1006.13 1005.54 1005.15 1004.99 1005.11 1005.48 1006.04 1006.72 1007.44 1008.13 1008.75 1009.27 1009.71 1010.09 1010.44 1010.79 1011.16 1011.56 1011.98 1012.40 1012.79 1013.14 1013.45 1013.72 1013.96 1014.18 1014.40 1014.63 1014.88 1015.15 1015.43 1015.69 1015.92 1016.11 1016.24 1016.31 1016.32
1009.75 1009.18 1008.74 1008.46 1008.32 1008.28 1008.24 1008.14 1007.92 1007.53 1007.00 1006.38 1005.76 1005.22 1004.86 1004.73 1004.86 1005.24 1005.80 1006.49 1007.21 1007.91 1008.55 1009.09 1009.54 1009.94 1010.30 1010.66 1011.03 1011.41 1011.81 1012.21 1012.58 1012.92 1013.22 1013.47 1013.70 1013.91 1014.13 1014.37 1014.63 1014.90 1015.19 1015.46 1015.71 1015.91 1016.05 1016.12 1016.11
1008.60 1008.08 1007.71 1007.50 1007.43 1007.45 1007.48 1007.43 1007.26 1006.94 1006.47 1005.92 1005.36 1004.88 1004.57 1004.48 1004.63 1005.02 1005.59 1006.27 1007.00 1007.70 1008.34 1008.89 1009.36 1009.76 1010.13 1010.48 1010.84 1011.21 1011.58 1011.96 1012.31 1012.64 1012.92 1013.18 1013.41 1013.63 1013.85 1014.09 1014.35 1014.64 1014.92 1015.20 1015.45 1015.66 1015.80 1015.86 1015.84
1007.43 1006.99 1006.72 1006.61 1006.62 1006.70 1006.77 1006.76 1006.62 1006.32 1005.90 1005.39 1004.89 1004.47 1004.21 1004.16 1004.35 1004.74 1005.31 1005.99 1006.70 1007.40 1008.04 1008.60 1009.07 1009.48 1009.85 1010.19 1010.54 1010.89 1011.25 1011.60 1011.94 1012.25 1012.54 1012.80 1013.04 1013.28 1013.51 1013.76 1014.03 1014.31 1014.59 1014.86 1015.11 1015.31 1015.44 1015.49 1015.46
1006.33 1006.02 1005.86 1005.84 1005.92 1006.04 1006.13 1006.12 1005.98 1005.69 1005.28 1004.81 1004.36 1003.98 1003.77 1003.75 1003.95 1004.35 1004.91 1005.57 1006.27 1006.96 1007.59 1008.14 1008.62 1009.04 1009.41 1009.75 1010.09 1010.43 1010.77 1011.11 1011.44 1011.75 1012.05 1012.32 1012.58 1012.84 1013.09 1013.34 1013.61 1013.88 1014.15 1014.41 1014.64 1014.83 1014.96 1015.02 1014.99
1005.41 1005.22 1005.17 1005.24 1005.37 1005.50 1005.57 1005.54 1005.36 1005.05 1004.63 1004.17 1003.74 1003.40 1003.22 1003.23 1003.44 1003.83 1004.37 1005.00 1005.67 1006.33 1006.94 1007.49 1007.97 1008.39 1008.77 1009.13 1009.47 1009.81 1010.14 1010.48 1010.81 1011.13 1011.44 1011.73 1012.02 1012.29 1012.56 1012.82 1013.08 1013.34 1013.59 1013.83 1014.04 1014.23 1014.36 1014.44 1014.44
1004.72 1004.65 1004.69 1004.81 1004.95 1005.06 1005.08 1004.98 1004.75 1004.39 1003.96 1003.50 1003.09 1002.78 1002.62 1002.64 1002.85 1003.22 1003.72 1004.30 1004.92 1005.54 1006.12 1006.66 1007.14 1007.58 1007.97 1008.34 1008.70 1009.05 1009.39 1009.74 1010.08 1010.41 1010.73 1011.05 1011.35 1011.64 1011.92 1012.18 1012.44 1012.68 1012.91 1013.13 1013.34 1013.52 1013.67 1013.77 1013.83
1004.29 1004.31 1004.40 1004.54 1004.65 1004.70 1004.64 1004.45 1004.15 1003.75 1003.30 1002.85 1002.47 1002.19 1002.06 1002.10 1002.29 1002.63 1003.07 1003.58 1004.13 1004.69 1005.23 1005.73 1006.21 1006.65 1007.07 1007.46 1007.85 1008.22 1008.58 1008.94 1009.29 1009.64 1009.97 1010.30 1010.62 1010.92 1011.21 1011.48 1011.72 1011.95 1012.17 1012.37 1012.56 1012.75 1012.92 1013.06 1013.17
1004.10 1004.17 1004.27 1004.37 1004.42 1004.38 1004.23 1003.96 1003.59 1003.16 1002.71 1002.30 1001.96 1001.74 1001.65 1001.70 1001.88 1002.16 1002.53 1002.96 1003.42 1003.89 1004.36 1004.83 1005.28 1005.73 1006.16 1006.58 1006.99 1007.39 1007.78 1008.15 1008.51 1008.87 1009.21 1009.55 1009.88 1010.19 1010.47 1010.74 1010.97 1011.19 1011.39 1011.58 1011.77 1011.96 1012.15 1012.33 1012.50
1004.09 1004.17 1004.24 1004.28 1004.24 1004.10 1003.85 1003.51 1003.10 1002.67 1002.26 1001.91 1001.65 1001.50 1001.47 1001.54 1001.70 1001.94 1002.22 1002.55 1002.90 1003.27 1003.65 1004.06 1004.48 1004.91 1005.35 1005.80 1006.23 1006.65 1007.06 1007.44 1007.81 1008.17 1008.51 1008.85 1009.17 1009.47 1009.76 1010.02 1010.25 1010.45 1010.64 1010.82 1010.99 1011.18 1011.38 1011.59 1011.80
1004.18 1004.24 1004.26 1004.22 1004.08 1003.85 1003.52 1003.13 1002.72 1002.32 1001.98 1001.73 1001.58 1001.53 1001.56 1001.66 1001.82 1002.00 1002.20 1002.41 1002.64 1002.89 1003.18 1003.51 1003.88 1004.29 1004.73 1005.18 1005.63 1006.06 1006.48 1006.86 1007.23 1007.57 1007.91 1008.23 1008.54 1008.84 1009.11 1009.36 1009.58 1009.77 1009.94 1010.10 1010.26 1010.44 1010.63 1010.84 1011.06
1004.30 1004.33 1004.29 1004.16 1003.93 1003.62 1003.24 1002.84 1002.45 1002.13 1001.90 1001.77 1001.74 1001.80 1001.91 1002.05 1002.20 1002.33 1002.44 1002.54 1002.65 1002.79 1002.97 1003.22 1003.53 1003.91 1004.33 1004.77 1005.22 1005.65 1006.06 1006.44 1006.79 1007.11 1007.42 1007.72 1008.01 1008.29 1008.56 1008.79 1009.00 1009.18 1009.33 1009.47 1009.60 1009.74 1009.89 1010.07 1010.27
1004.40 1004.38 1004.28 1004.08 1003.79 1003.42 1003.02 1002.63 1002.31 1002.08 1001.96 1001.97 1002.07 1002.24 1002.43 1002.62 1002.76 1002.85 1002.88 1002.89 1002.89 1002.92 1003.01 1003.18 1003.43 1003.76 1004.15 1004.57 1005.01 1005.42 1005.81 1006.17 1006.49 1006.78 1007.06 1007.34 1007.60 1007.86 1008.11 1008.33 1008.53 1008.68 1008.81 1008.91 1009.00 1009.09 1009.19 1009.31 1009.45
1004.45 1004.39 1004.23 1003.98 1003.63 1003.24 1002.85 1002.50 1002.24 1002.11 1002.12 1002.24 1002.46 1002.73 1003.00 1003.21 1003.36 1003.42 1003.40 1003.33 1003.26 1003.21 1003.22 1003.32 1003.52 1003.81 1004.16 1004.55 1004.96 1005.35 1005.70 1006.02 1006.31 1006.57 1006.81 1007.06 1007.30 1007.54 1007.76 1007.97 1008.15 1008.29 1008.39 1008.45 1008.49 1008.51 1008.53 1008.56 1008.62
1004.45 1004.34 1004.14 1003.84 1003.47 1003.07 1002.69 1002.39 1002.20 1002.16 1002.26 1002.49 1002.80 1003.14 1003.45 1003.70 1003.85 1003.90 1003.85 1003.75 1003.63 1003.54 1003.52 1003.58 1003.74 1003.99 1004.31 1004.66 1005.03 1005.38 1005.69 1005.97 1006.22 1006.44 1006.65 1006.86 1007.08 1007.30 1007.52 1007.72 1007.88 1008.00 1008.07 1008.09 1008.07 1008.02 1007.96 1007.89 1007.84
1004.41 1004.26 1004.02 1003.69 1003.30 1002.90 1002.54 1002.27 1002.13 1002.15 1002.32 1002.61 1002.97 1003.35 1003.70 1003.97 1004.13 1004.19 1004.15 1004.05 1003.93 1003.84 1003.81 1003.87 1004.01 1004.24 1004.52 1004.84 1005.16 1005.46 1005.73 1005.97 1006.17 1006.36 1006.55 1006.74 1006.94 1007.15 1007.36 1007.55 1007.70 1007.81 1007.85 1007.83 1007.76 1007.64 1007.50 1007.34 1007.19
Thickness
5715 5719 5722 5719 5714 5713 5721 5731 5733 5732 5735 5742 5745 5745 5748 5749 5749 5746 5757 5765 5767 5769 5770 5768 5767 5767 5767 5766 5766 5765 5764 5763 5762 5761 5760 5758 5757 5756 5755 5753 5752 5751 5749 5748 5747 5745 5743 5741 5740
5711 5714 5714 5711 5707 5711 5720 5728 5726 5729 5734 5737 5740 5741 5743 5747 5752 5753 5756 5758 5762 5765 5766 5764 5762 5762 5762 5762 5762 5761 5761 5760 5759 5758 5756 5755 5754 5753 5752 5750 5749 5748 5747 5745 5744 5742 5740 5738 5736
5707 5709 5706 5704 5705 5715 5721 5722 5724 5727 5731 5731 5733 5738 5739 5742 5746 5748 5750 5753 5757 5760 5760 5760 5757 5757 5757 5758 5758 5757 5757 5756 5755 5754 5753 5752 5751 5750 5748 5747 5746 5745 5743 5742 5740 5739 5737 5734 5732
5701 5699 5698 5696 5703 5712 5716 5717 5717 5719 5723 5725 5726 5730 5736 5738 5739 5742 5745 5749 5751 5754 5755 5754 5752 5752 5752 5753 5753 5753 5752 5752 5751 5750 5749 5748 5747 5746 5745 5744 5742 5741 5739 5738 5737 5735 5733 5731 5729
5695 5692 5687 5691 5699 5706 5710 5711 5710 5712 5715 5718 5719 5721 5727 5733 5735 5738 5740 5743 5745 5747 5748 5749 5747 5747 5747 5748 5748 5748 5748 5748 5747 5746 5745 5745 5744 5742 5741 5740 5738 5737 5735 5734 5733 5731 5729 5727 5725
5684 5684 5683 5691 5697 5700 5702 5703 5703 5705 5709 5711 5711 5714 5722 5727 5728 5730 5734 5736 5739 5740 5741 5742 5741 5741 5742 5743 5743 5743 5743 5743 5743 5742 5741 5740 5740 5739 5737 5736 5735 5733 5731 5730 5728 5727 5725 5723 5721
5676 5674 5680 5687 5688 5689 5692 5695 5695 5697 5700 5703 5705 5705 5717 5720 5721 5724 5727 5729 5732 5733 5735 5737 5737 5737 5737 5737 5738 5738 5738 5738 5738 5738 5737 5736 5735 5734 5733 5732 5730 5729 5728 5726 5725 5723 5721 5719 5717
5671 5668 5670 5674 5677 5681 5684 5684 5686 5686 5691 5696 5696 5698 5706 5711 5713 5715 5718 5720 5723 5725 5728 5730 5731 5732 5733 5733 5733 5733 5733 5733 5733 5733 5732 5731 5730 5729 5728 5727 5726 5725 5723 5722 5720 5718 5717 5714 5712
5662 5657 5665 5670 5670 5673 5673 5673 5677 5680 5682 5685 5688 5692 5697 5700 5702 5704 5707 5711 5713 5716 5720 5723 5725 5726 5727 5728 5729 5728 5728 5728 5728 5728 5727 5726 5726 5726 5724 5723 5722 5721 5719 5717 5715 5714 5712 5709 5707
5653 5653 5662 5663 5663 5663 5663 5663 5665 5670 5673 5678 5681 5685 5687 5689 5691 5693 5697 5700 5704 5707 5711 5715 5717 5719 5720 5722 5722 5723 5723 5723 5724 5724 5723 5723 5723 5722 5721 5718 5717 5716 5714 5712 5710 5708 5706 5704 5703
5647 5649 5652 5651 5651 5651 5652 5655 5657 5658 5665 5670 5672 5676 5677 5678 5682 5685 5689 5693 5696 5699 5702 5706 5708 5711 5713 5714 5716 5717 5717 5717 5718 5719 5719 5718 5718 5716 5715 5713 5711 5710 5709 5707 5705 5703 5703 5702 5700
5638 5640 5640 5642 5641 5641 5643 5647 5650 5652 5659 5664 5664 5665 5666 5668 5673 5676 5680 5684 5688 5690 5693 5696 5699 5702 5704 5706 5708 5709 5710 5711 5712 5712 5712 5712 5711 5711 5710 5708 5708 5707 5706 5704 5702 5701 5700 5698 5696
5631 5633 5632 5632 5631 5633 5635 5639 5642 5649 5653 5654 5654 5655 5659 5662 5665 5669 5672 5675 5678 5682 5685 5688 5690 5693 5695 5697 5699 5701 5702 5704 5704 5704 5704 5704 5704 5705 5704 5704 5703 5702 5701 5700 5698 5697 5696 5694 5692
5626 5625 5625 5626 5626 5629 5629 5636 5634 5646 5646 5645 5645 5648 5651 5654 5657 5660 5663 5666 5669 5672 5676 5679 5681 5684 5686 5688 5690 5692 5694 5694 5695 5696 5696 5696 5697 5697 5697 5697 5696 5696 5696 5695 5693 5692 5691 5689 5687
5615 5616 5622 5623 5622 5624 5622 5633 5636 5640 5636 5637 5639 5641 5643 5646 5648 5651 5654 5657 5660 5663 5666 5669 5672 5674 5676 5679 5680 5683 5684 5685 5686 5687 5687 5688 5688 5689 5689 5690 5690 5690 5689 5688 5687 5686 5685 5683 5681
5610 5613 5619 5622 5618 5617 5614 5632 5638 5633 5628 5630 5633 5635 5636 5638 5639 5642 5644 5647 5650 5653 5655 5658 5661 5664 5665 5669 5671 5673 5675 5676 5677 5678 5678 5679 5679 5680 5680 5681 5682 5682 5682 5681 5679 5679 5677 5677 5675
5609 5613 5616 5617 5614 5611 5610 5624 5632 5627 5622 5624 5627 5628 5629 5630 5630 5632 5634 5636 5639 5642 5645 5647 5649 5652 5654 5657 5660 5662 5663 5665 5666 5667 5668 5669 5669 5670 5671 5672 5674 5674 5674 5673 5672 5672 5671 5670 5669
5611 5610 5609 5610 5609 5604 5606 5617 5625 5623 5618 5619 5620 5621 5620 5620 5621 5621 5623 5626 5628 5630 5633 5636 5638 5640 5642 5644 5648 5649 5651 5653 5655 5656 5657 5658 5659 5660 5661 5663 5664 5665 5665 5665 5665 5664 5663 5663 5662
5598 5596 5598 5605 5601 5596 5604 5612 5619 5619 5615 5614 5614 5613 5612 5611 5612 5611 5613 5615 5617 5618 5621 5624 5626 5629 5630 5632 5635 5637 5639 5641 5643 5644 5646 5647 5648 5649 5650 5653 5654 5655 5656 5657 5658 5657 5656 5654 5654
5586 5586 5593 5599 5593 5590 5599 5607 5616 5615 5611 5609 5607 5606 5605 5603 5603 5602 5603 5605 5607 5609 5610 5612 5614 5617 5618 5620 5622 5624 5626 5628 5630 5632 5634 5636 5638 5639 5641 5643 5645 5646 5647 5648 5650 5649 5649 5648 5646
5581 5583 5587 5586 5587 5586 5584 5608 5614 5611 5607 5603 5600 5598 5597 5595 5595 5595 5595 5595 5596 5598 5599 5600 5603 5605 5606 5607 5608 5610 5612 5614 5616 5619 5622 5625 5627 5628 5630 5633 5635 5637 5638 5640 5642 5642 5641 5641 5640
5581 5581 5575 5572 5571 5579 5573 5587 5612 5605 5601 5598 5596 5593 5592 5589 5587 5586 5586 5586 5586 5588 5589 5589 5592 5593 5594 5595 5597 5598 5601 5604 5607 5609 5611 5613 5615 5617 5620 5622 5625 5627 5629 5632 5633 5634 5634 5633 5633
5572 5567 5564 5562 5560 5558 5568 5563 5600 5596 5592 5592 5590 5587 5584 5582 5580 5578 5577 5576 5577 5578 5579 5580 5582 5583 5583 5584 5585 5587 5590 5593 5596 5598 5600 5602 5605 5607 5609 5611 5614 5617 5620 5623 5625 5626 5627 5627 5628
5557 5556 5553 5551 5551 5554 5569 5565 5590 5591 5585 5583 5581 5577 5573 5571 5569 5568 5568 5567 5568 5569 5571 5571 5572 5573 5573 5573 5574 5576 5579 5581 5584 5587 5590 5591 5593 5596 5598 5600 5603 5607 5610 5613 5616 5618 5619 5620 5621
5549 5551 5557 5558 5555 5568 5561 5559 5580 5583 5576 5572 5569 5566 5563 5559 5558 5558 5559 5559 5560 5561 5562 5562 5562 5563 5563 5563 5564 5567 5569 5571 5573 5576 5579 5580 5582 5585 5587 5590 5593 5596 5600 5603 5605 5608 5611 5612 5614
5543 5544 5546 5550 5561 5568 5554 5559 5578 5573 5566 5561 5558 5555 5552 5550 5549 5549 5549 5550 5551 5552 5552 5552 5552 5553 5553 5554 5556 5558 5559 5561 5564 5566 5569 5570 5573 5576 5578 5580 5584 5587 5590 5593 5596 5598 5601 5603 5605
5534 5536 5535 5529 5527 5530 5556 5562 5566 5564 5558 5554 5551 5546 5543 5541 5540 5539 5539 5540 5542 5542 5543 5542 5543 5543 5543 5545 5546 5548 5550 5552 5555 5556 5558 5560 5562 5565 5568 5571 5574 5577 5580 5583 5586 5589 5592 5595 5597
5526 5527 5519 5517 5520 5535 5554 5555 5561 5557 5552 5547 5542 5539 5535 5533 5532 5531 5531 5531 5532 5533 5533 5533 5533 5534 5534 5535 5536 5538 5540 5543 5545 5546 5547 5549 5552 5556 5558 5561 5564 5567 5570 5573 5576 5580 5583 5586 5588
5511 5509 5512 5513 5512 5519 5536 5555 5555 5546 5541 5536 5533 5529 5526 5524 5523 5523 5522 5522 5523 5524 5524 5524 5524 5524 5524 5525 5526 5528 5530 5532 5534 5536 5537 5540 5543 5545 5549 5552 5554 5557 5560 5563 5566 5570 5574 5577 5580
5509 5511 5506 5502 5501 5501 5512 5538 5545 5536 5529 5524 5521 5518 5516 5515 5514 5513 5513 5512 5513 5514 5514 5514 5515 5514 5515 5516 5516 5518 5520 5521 5524 5526 5528 5530 5533 5536 5539 5543 5546 5549 5552 5554 5557 5561 5565 5569 5573